Regional Weather Roundup
Issued by NWS Albany, NY

Home | Current Version | Previous Version | Text Only | Print | Product List | Glossary On
Versions: 1 2 3 4 5 6 7 8 9 10 11 12 13 14 15 16 17 18 19 20 21 22 23 24 25 26 27 28 29 30 31 32 33 34 35 36 37 38 39 40 41 42 43 44 45 46 47 48 49 50
881
ASUS41 KALY 201710
RWRALY

NEW YORK STATE HOURLY WEATHER ROUNDUP
NATIONAL WEATHER SERVICE ALBANY NY
1200 PM EST FRI JAN 20 2017

NOTE: "FAIR" INDICATES FEW OR NO CLOUDS BELOW 12,000 FEET WITH NO
SIGNIFICANT WEATHER AND/OR NO OBSTRUCTIONS TO VISIBILITY.

NYZ032-033-038>043-046>054-057>066-NYZ062>081-082-084-201800-
EAST


CITY           SKY/WX    TMP DP  RH WIND       PRES   REMARKS
ALBANY         CLOUDY    38  30  73 SE8       29.97F WCI  32
GLENS FALLS    NOT AVBL
POUGHKEEPSIE   CLOUDY    39  30  70 SE5       29.98F
NEWBURGH       CLOUDY    39  32  75 SE6       29.98F WCI  35
MONTGOMERY     CLOUDY    41  31  67 CALM      29.96F
WHITE PLAINS   CLOUDY    41  32  70 SE6       29.98F
ISLIP          CLOUDY    43  32  65 W5        30.00F
NEW YORK CITY  CLOUDY    44  34  67 NE10      29.99F
CENTRAL PARK   CLOUDY    44  34  67 CALM      30.01F
$$

NYZ005>009-017-018-044>046-055-056-201800-
CENTRAL


CITY           SKY/WX    TMP DP  RH WIND       PRES   REMARKS
FULTON         MOSUNNY   38  33  82 SE9G17    29.84F WCI  31
SYRACUSE       CLOUDY    41  34  76 SE9       29.86F
ROME           CLOUDY    37  33  85 SE8       29.92F WCI  31
ELMIRA         CLOUDY    42  33  70 E5        29.83F
BINGHAMTON     CLOUDY    35  32  88 S9        29.84F WCI  28
MONTICELLO     CLOUDY    36  32  87 S7        29.93F WCI  30
$$

NYZ026>034-041>043-087-201800-
NORTH


CITY           SKY/WX    TMP DP  RH WIND       PRES   REMARKS
WATERTOWN      CLOUDY    38  34  85 E3        29.87F
FORT DRUM      NOT AVBL
OGDENSBURG     CLOUDY    37  32  82 S3        29.90S
MASSENA        CLOUDY    37  30  75 E7        29.92F WCI  32
SARANAC LAKE   CLOUDY    31  27  85 CALM      29.83F
PLATTSBURGH    CLOUDY    37  29  72 SE12      29.93F WCI  29
$$

NYZ001>004-010>016-019>021-085-201800-
WEST


CITY           SKY/WX    TMP DP  RH WIND       PRES   REMARKS
NIAGARA FALLS  CLOUDY    43  36  76 SE5       29.75F
BUFFALO        CLOUDY    40  36  86 NE5       29.75F
DUNKIRK        LGT RAIN  38  37  97 N7        29.73F FOG     WCI  33
JAMESTOWN      CLOUDY    37  36  93 S12       29.70F WCI  30
WELLSVILLE     LGT RAIN  39  36  89 S8G16     29.76F FOG     WCI  33
ROCHESTER      CLOUDY    43  35  73 SE7       29.78F
PENN YAN       PTSUNNY   43  33  68 S13G21    29.80F
$$

             KEY
       WCI = WIND CHILL INDEX
       VSB = VISIBILITY
       HX  = HEAT INDEX
$$




USA.gov is the U.S. government's official web portal to all federal, state and local government web resources and services.